JLY1457 SKBO-GOBD

Flight info

Callsign JLY1457
Flight time 7h 8m
Altitude 31000
Route MAVDA UW20 AUC DCT MIQ UN669 ELJEZ/M084F310 DCT 2150N DCT 2340N DCT 22N036W DCT ERNEK/N0507F310 DCT EVKAS DCT BVT DCT MOGSA DCT PIVSA
Aircraft B77L/H-SDE1E2E3FGHIJ2J3J4J5M1RWXY/LB1D1

Departure

Time 2026-04-25 12:19
Airport El Dorado International Airport (SKBO)

Arrival

Time 2026-04-25 19:27
Airport Blaise Diagne International Airport (GOBD)
Time Latitude Longitude Altitude Speed Heading
2026-04-25 11:15 4.69201 -74.13919 8376 ft 0 kts 17°
2026-04-25 12:02 4.69193 -74.13922 8377 ft 4 kts 17°
2026-04-25 12:02 4.69167 -74.13929 8376 ft 4 kts 17°
2026-04-25 12:03 4.69141 -74.13937 8376 ft 4 kts
2026-04-25 12:03 4.69120 -74.13930 8377 ft 4 kts 307°
2026-04-25 12:03 4.69109 -74.13908 8377 ft 2 kts 278°
2026-04-25 12:03 4.69109 -74.13902 8377 ft 0 kts 277°
2026-04-25 12:07 4.69109 -74.13904 8377 ft 2 kts 277°
2026-04-25 12:07 4.69119 -74.13976 8374 ft 14 kts 282°
2026-04-25 12:08 4.69164 -74.14062 8375 ft 14 kts 306°
2026-04-25 12:08 4.69222 -74.14139 8377 ft 14 kts 307°
2026-04-25 12:08 4.69282 -74.14217 8376 ft 14 kts 307°
2026-04-25 12:08 4.69341 -74.14294 8377 ft 14 kts 307°
2026-04-25 12:09 4.69401 -74.14373 8376 ft 15 kts 307°
2026-04-25 12:09 4.69473 -74.14467 8375 ft 17 kts 308°
2026-04-25 12:09 4.69546 -74.14564 8375 ft 17 kts 306°
2026-04-25 12:09 4.69618 -74.14662 8375 ft 17 kts 307°
2026-04-25 12:10 4.69691 -74.14758 8373 ft 17 kts 308°
2026-04-25 12:10 4.69765 -74.14853 8373 ft 17 kts 307°
2026-04-25 12:10 4.69830 -74.14940 8374 ft 15 kts 307°
2026-04-25 12:10 4.69892 -74.15022 8375 ft 15 kts 307°
2026-04-25 12:11 4.69954 -74.15104 8374 ft 15 kts 307°
2026-04-25 12:11 4.70015 -74.15185 8375 ft 15 kts 307°
2026-04-25 12:11 4.70077 -74.15267 8375 ft 15 kts 307°
2026-04-25 12:11 4.70138 -74.15348 8375 ft 15 kts 307°
2026-04-25 12:12 4.70206 -74.15436 8377 ft 16 kts 307°
2026-04-25 12:12 4.70249 -74.15494 8375 ft 16 kts 307°
2026-04-25 12:12 4.70338 -74.15611 8375 ft 16 kts 306°
2026-04-25 12:12 4.70402 -74.15698 8375 ft 14 kts 307°
2026-04-25 12:13 4.70461 -74.15774 8375 ft 14 kts 308°
2026-04-25 12:13 4.70518 -74.15849 8374 ft 14 kts 307°
2026-04-25 12:13 4.70575 -74.15926 8376 ft 14 kts 307°
2026-04-25 12:13 4.70632 -74.16002 8375 ft 14 kts 307°
2026-04-25 12:14 4.70694 -74.16082 8377 ft 15 kts 307°
2026-04-25 12:14 4.70755 -74.16163 8377 ft 15 kts 307°
2026-04-25 12:14 4.70817 -74.16244 8374 ft 15 kts 307°
2026-04-25 12:14 4.70879 -74.16325 8375 ft 15 kts 307°
2026-04-25 12:15 4.70941 -74.16406 8376 ft 15 kts 307°
2026-04-25 12:15 4.71002 -74.16487 8375 ft 15 kts 307°
2026-04-25 12:15 4.71065 -74.16571 8376 ft 18 kts 307°
2026-04-25 12:15 4.71161 -74.16699 8376 ft 24 kts 307°
2026-04-25 12:16 4.71147 -74.16842 8375 ft 24 kts 217°
2026-04-25 12:16 4.71025 -74.16869 8374 ft 12 kts 145°
2026-04-25 12:16 4.71010 -74.16853 8375 ft 0 kts 130°
2026-04-25 12:17 4.71005 -74.16848 8375 ft 11 kts 130°
2026-04-25 12:18 4.70853 -74.16650 8375 ft 60 kts 127°
2026-04-25 12:18 4.70510 -74.16196 8377 ft 102 kts 127°
2026-04-25 12:18 4.70184 -74.15763 8376 ft 128 kts 127°
2026-04-25 12:18 4.69586 -74.14971 8374 ft 160 kts 127°
2026-04-25 12:19 4.68129 -74.12986 8562 ft 183 kts 124°
2026-04-25 12:19 4.67361 -74.11935 8758 ft 186 kts 124°
2026-04-25 12:19 4.66571 -74.10831 9073 ft 207 kts 125°
2026-04-25 12:20 4.65418 -74.09861 9335 ft 238 kts 161°
2026-04-25 12:20 4.63749 -74.09801 9998 ft 249 kts 194°
2026-04-25 12:20 4.62202 -74.10548 10819 ft 246 kts 219°
2026-04-25 12:20 4.61133 -74.11858 11463 ft 245 kts 245°
2026-04-25 12:21 4.60758 -74.13508 11991 ft 245 kts 273°
2026-04-25 12:21 4.60943 -74.15207 12522 ft 248 kts 277°
2026-04-25 12:21 4.61143 -74.16931 13107 ft 250 kts 276°
2026-04-25 12:21 4.61340 -74.18668 13731 ft 251 kts 276°
2026-04-25 12:22 4.61533 -74.20409 14311 ft 252 kts 274°
2026-04-25 12:22 4.61414 -74.22187 14587 ft 266 kts 258°
2026-04-25 12:22 4.61001 -74.24074 14729 ft 287 kts 258°
2026-04-25 12:22 4.60579 -74.26067 15072 ft 298 kts 255°
2026-04-25 12:23 4.59663 -74.27988 15203 ft 318 kts 231°
2026-04-25 12:23 4.58096 -74.29656 15372 ft 341 kts 225°
2026-04-25 12:23 4.56366 -74.31399 15523 ft 364 kts 226°
2026-04-25 12:23 4.54536 -74.33267 15656 ft 387 kts 226°
2026-04-25 12:24 4.52599 -74.35225 15904 ft 399 kts 223°
2026-04-25 12:24 4.50240 -74.36774 16185 ft 415 kts 202°
2026-04-25 12:24 4.47477 -74.37588 16762 ft 412 kts 197°
2026-04-25 12:24 4.44910 -74.38863 17044 ft 418 kts 219°
2026-04-25 12:25 4.42679 -74.40723 17464 ft 420 kts 219°
2026-04-25 12:25 4.40258 -74.42413 18023 ft 424 kts 211°
2026-04-25 12:25 4.37534 -74.43547 18555 ft 430 kts 192°
2026-04-25 12:25 4.34535 -74.43738 19094 ft 435 kts 175°
2026-04-25 12:26 4.31594 -74.43019 19679 ft 439 kts 157°
2026-04-25 12:26 4.28976 -74.41442 20225 ft 442 kts 140°
2026-04-25 12:26 4.26928 -74.39143 20760 ft 446 kts 122°
2026-04-25 12:26 4.25625 -74.36323 21299 ft 449 kts 105°
2026-04-25 12:27 4.25174 -74.33233 21846 ft 451 kts 89°
2026-04-25 12:27 4.25620 -74.30124 22391 ft 452 kts 73°
2026-04-25 12:27 4.26835 -74.27228 22907 ft 454 kts 58°
2026-04-25 12:27 4.28659 -74.24648 23338 ft 456 kts 51°
2026-04-25 12:28 4.30659 -74.22155 23778 ft 460 kts 50°
2026-04-25 12:28 4.32717 -74.19689 24244 ft 461 kts 50°
2026-04-25 12:28 4.34781 -74.17230 24750 ft 463 kts 50°
2026-04-25 12:28 4.36850 -74.14737 25146 ft 466 kts 50°
2026-04-25 12:29 4.38911 -74.12218 25537 ft 469 kts 51°
2026-04-25 12:29 4.40965 -74.09675 25945 ft 472 kts 51°
2026-04-25 12:29 4.43029 -74.07098 26312 ft 476 kts 52°
2026-04-25 12:29 4.45101 -74.04498 26646 ft 478 kts 52°
2026-04-25 12:30 4.47181 -74.01881 27058 ft 480 kts 52°
2026-04-25 12:30 4.49262 -73.99262 27474 ft 482 kts 52°
2026-04-25 12:30 4.51357 -73.96625 27880 ft 484 kts 52°
2026-04-25 12:30 4.53464 -73.93973 28248 ft 487 kts 52°
2026-04-25 12:31 4.55582 -73.91309 28615 ft 490 kts 52°
2026-04-25 12:31 4.57709 -73.88636 28970 ft 492 kts 53°
2026-04-25 12:31 4.59849 -73.85945 29317 ft 494 kts 53°
2026-04-25 12:31 4.61993 -73.83248 29652 ft 496 kts 53°
2026-04-25 12:32 4.64146 -73.80542 29968 ft 498 kts 53°
2026-04-25 12:32 4.66308 -73.77823 30340 ft 498 kts 53°
2026-04-25 12:32 4.68465 -73.75111 30777 ft 496 kts 53°
2026-04-25 12:32 4.70615 -73.72408 31174 ft 495 kts 53°
2026-04-25 12:33 4.72762 -73.69707 31159 ft 495 kts 53°
2026-04-25 12:33 4.77044 -73.64319 31147 ft 495 kts 53°
2026-04-25 12:34 4.81366 -73.58877 31156 ft 502 kts 53°
2026-04-25 12:34 4.85727 -73.53387 31163 ft 505 kts 53°
2026-04-25 12:35 4.90102 -73.47881 31121 ft 504 kts 53°
2026-04-25 12:35 4.94430 -73.42432 31125 ft 501 kts 53°
2026-04-25 12:36 4.98763 -73.36973 31096 ft 500 kts 53°
2026-04-25 12:36 5.03086 -73.31526 31104 ft 498 kts 53°
2026-04-25 12:37 5.07391 -73.26101 31110 ft 496 kts 53°
2026-04-25 12:37 5.11685 -73.20688 31095 ft 496 kts 53°
2026-04-25 12:38 5.15975 -73.15278 31109 ft 495 kts 53°
2026-04-25 12:38 5.20256 -73.09878 31107 ft 495 kts 53°
2026-04-25 12:39 5.24548 -73.04464 31084 ft 496 kts 53°
2026-04-25 12:39 5.28842 -72.99046 31125 ft 496 kts 53°
2026-04-25 12:40 5.33137 -72.93626 31111 ft 497 kts 53°
2026-04-25 12:40 5.37443 -72.88190 31104 ft 497 kts 53°
2026-04-25 12:41 5.41745 -72.82758 31145 ft 497 kts 53°
2026-04-25 12:41 5.46042 -72.77329 31116 ft 497 kts 53°
2026-04-25 12:42 5.50350 -72.71886 31111 ft 498 kts 53°
2026-04-25 12:42 5.54662 -72.66440 31118 ft 498 kts 53°
2026-04-25 12:43 5.58968 -72.60995 31114 ft 498 kts 53°
2026-04-25 12:43 5.65447 -72.52804 31088 ft 500 kts 53°
2026-04-25 12:44 5.69772 -72.47333 31115 ft 501 kts 53°
2026-04-25 12:45 5.76270 -72.39111 31075 ft 501 kts 53°
2026-04-25 12:45 5.82761 -72.30896 31093 ft 500 kts 53°
2026-04-25 12:46 5.87084 -72.25420 31067 ft 500 kts 54°
2026-04-25 12:46 5.91407 -72.19942 31064 ft 501 kts 54°
2026-04-25 12:47 5.95736 -72.14459 31096 ft 501 kts 54°
2026-04-25 12:47 6.00062 -72.08978 31057 ft 500 kts 54°
2026-04-25 12:48 6.04353 -72.03540 31053 ft 500 kts 54°
2026-04-25 12:48 6.08663 -71.98074 31085 ft 499 kts 54°
2026-04-25 12:49 6.12970 -71.92610 31039 ft 498 kts 54°
2026-04-25 12:49 6.17273 -71.87149 31040 ft 499 kts 54°
2026-04-25 12:50 6.21583 -71.81678 31014 ft 500 kts 54°
2026-04-25 12:50 6.25907 -71.76190 31033 ft 501 kts 54°
2026-04-25 12:51 6.30241 -71.70687 31028 ft 502 kts 54°
2026-04-25 12:51 6.34578 -71.65177 30997 ft 502 kts 54°
2026-04-25 12:52 6.38912 -71.59671 30998 ft 502 kts 54°
2026-04-25 12:52 6.43247 -71.54161 30987 ft 503 kts 53°
2026-04-25 12:53 6.47585 -71.48644 30994 ft 503 kts 53°
2026-04-25 12:53 6.51928 -71.43121 30998 ft 504 kts 53°
2026-04-25 12:54 6.56278 -71.37586 30998 ft 505 kts 53°
2026-04-25 12:54 6.60638 -71.32038 30997 ft 506 kts 53°
2026-04-25 12:55 6.64263 -71.27423 30994 ft 506 kts 53°
2026-04-25 12:55 6.69359 -71.20934 30994 ft 506 kts 53°
2026-04-25 12:56 6.73720 -71.15379 30997 ft 506 kts 53°
2026-04-25 12:56 6.78075 -71.09829 30991 ft 505 kts 53°
2026-04-25 12:57 6.82429 -71.04279 30989 ft 505 kts 53°
2026-04-25 12:57 6.86776 -70.98735 30991 ft 505 kts 53°
2026-04-25 12:58 6.91123 -70.93190 30994 ft 505 kts 53°
2026-04-25 12:58 6.95472 -70.87640 30994 ft 505 kts 53°
2026-04-25 12:59 6.99822 -70.82088 30993 ft 505 kts 53°
2026-04-25 12:59 7.04175 -70.76527 30967 ft 506 kts 53°
2026-04-25 13:00 7.07088 -70.72864 30967 ft 507 kts 50°
2026-04-25 13:00 7.13616 -70.65998 30970 ft 508 kts 47°
2026-04-25 13:01 7.18531 -70.60946 30976 ft 509 kts 47°
2026-04-25 13:01 7.23465 -70.55831 30985 ft 509 kts 47°
2026-04-25 13:02 7.28386 -70.50698 30990 ft 510 kts 47°
2026-04-25 13:02 7.33309 -70.45554 30991 ft 509 kts 47°
2026-04-25 13:03 7.37432 -70.41247 30993 ft 509 kts 47°
2026-04-25 13:03 7.42336 -70.36123 30992 ft 508 kts 47°
2026-04-25 13:04 7.47236 -70.31004 30994 ft 507 kts 47°
2026-04-25 13:04 7.52132 -70.25886 30994 ft 507 kts 47°
2026-04-25 13:05 7.57026 -70.20769 30991 ft 508 kts 47°
2026-04-25 13:05 7.61926 -70.15642 30993 ft 508 kts 47°
2026-04-25 13:06 7.66797 -70.10546 30993 ft 508 kts 47°
2026-04-25 13:06 7.71703 -70.05411 30991 ft 508 kts 47°
2026-04-25 13:07 7.76640 -70.00241 30994 ft 508 kts 47°
2026-04-25 13:07 7.81514 -69.95136 30994 ft 508 kts 47°
2026-04-25 13:08 7.86450 -69.89963 30993 ft 508 kts 47°
2026-04-25 13:08 7.91356 -69.84820 30993 ft 509 kts 47°
2026-04-25 13:09 7.96228 -69.79712 30995 ft 509 kts 47°
2026-04-25 13:09 8.01144 -69.74555 30996 ft 510 kts 47°
2026-04-25 13:10 8.06062 -69.69393 30995 ft 510 kts 47°
2026-04-25 13:10 8.10982 -69.64228 30994 ft 510 kts 47°
2026-04-25 13:11 8.15900 -69.59063 31001 ft 510 kts 47°
2026-04-25 13:11 8.20814 -69.53900 30998 ft 510 kts 47°
2026-04-25 13:12 8.25733 -69.48730 30999 ft 510 kts 47°
2026-04-25 13:12 8.29817 -69.44437 30999 ft 510 kts 47°
2026-04-25 13:13 8.35558 -69.38399 31002 ft 510 kts 47°
2026-04-25 13:13 8.40475 -69.33224 31009 ft 511 kts 47°
2026-04-25 13:14 8.45394 -69.28047 31006 ft 511 kts 47°
2026-04-25 13:14 8.50313 -69.22868 30995 ft 510 kts 47°
2026-04-25 13:15 8.55221 -69.17697 30993 ft 510 kts 47°
2026-04-25 13:15 8.60126 -69.12528 30994 ft 509 kts 47°
2026-04-25 13:16 8.65028 -69.07359 30994 ft 509 kts 47°
2026-04-25 13:16 8.69926 -69.02193 31000 ft 509 kts 47°
2026-04-25 13:17 8.74829 -68.97020 30991 ft 510 kts 47°
2026-04-25 13:17 8.79730 -68.91846 30995 ft 510 kts 47°
2026-04-25 13:18 8.84635 -68.86666 30994 ft 510 kts 47°
2026-04-25 13:18 8.89541 -68.81484 30993 ft 510 kts 47°
2026-04-25 13:19 8.94450 -68.76295 30995 ft 511 kts 47°
2026-04-25 13:19 8.98535 -68.71976 30989 ft 511 kts 47°
2026-04-25 13:20 9.04247 -68.65934 30991 ft 511 kts 47°
2026-04-25 13:20 9.09191 -68.60703 30992 ft 511 kts 47°
2026-04-25 13:21 9.14069 -68.55538 30989 ft 511 kts 47°
2026-04-25 13:21 9.18980 -68.50337 30983 ft 512 kts 47°
2026-04-25 13:22 9.23904 -68.45120 30992 ft 513 kts 47°
2026-04-25 13:23 9.31303 -68.37276 30994 ft 514 kts 47°
2026-04-25 13:23 9.36241 -68.32037 30991 ft 514 kts 47°
2026-04-25 13:24 9.41181 -68.26796 30993 ft 514 kts 47°
2026-04-25 13:24 9.46120 -68.21552 30991 ft 514 kts 47°
2026-04-25 13:25 9.51054 -68.16311 30990 ft 514 kts 47°
2026-04-25 13:25 9.55986 -68.11070 31001 ft 514 kts 47°
2026-04-25 13:26 9.60918 -68.05827 31009 ft 514 kts 47°
2026-04-25 13:26 9.65849 -68.00583 30998 ft 514 kts 47°
2026-04-25 13:27 9.70776 -67.95341 31008 ft 513 kts 47°
2026-04-25 13:27 9.75704 -67.90094 31013 ft 514 kts 47°
2026-04-25 13:28 9.80629 -67.84849 31003 ft 514 kts 47°
2026-04-25 13:28 9.85554 -67.79601 31019 ft 513 kts 47°
2026-04-25 13:29 9.90476 -67.74355 31019 ft 513 kts 47°
2026-04-25 13:29 9.95396 -67.69107 31028 ft 513 kts 47°
2026-04-25 13:30 10.02776 -67.61232 31021 ft 513 kts 47°
2026-04-25 13:31 10.10155 -67.53351 31021 ft 513 kts 47°
2026-04-25 13:31 10.15075 -67.48094 31022 ft 514 kts 47°
2026-04-25 13:32 10.20001 -67.42829 31011 ft 514 kts 47°
2026-04-25 13:32 10.24927 -67.37560 31023 ft 515 kts 47°
2026-04-25 13:33 10.29857 -67.32284 31017 ft 515 kts 47°
2026-04-25 13:33 10.34788 -67.27005 31026 ft 515 kts 47°
2026-04-25 13:34 10.39722 -67.21720 31032 ft 515 kts 47°
2026-04-25 13:34 10.44651 -67.16437 31005 ft 515 kts 47°
2026-04-25 13:35 10.49541 -67.11193 31015 ft 514 kts 47°
2026-04-25 13:35 10.54459 -67.05916 31012 ft 514 kts 47°
2026-04-25 13:36 10.59377 -67.00633 30966 ft 514 kts 47°
2026-04-25 13:36 10.63757 -66.94925 30971 ft 513 kts 57°
2026-04-25 13:37 10.67714 -66.88869 30963 ft 516 kts 57°
2026-04-25 13:37 10.71706 -66.82794 30972 ft 518 kts 57°
2026-04-25 13:38 10.75731 -66.76735 30968 ft 516 kts 56°
2026-04-25 13:38 10.79746 -66.70711 30977 ft 514 kts 56°
2026-04-25 13:39 10.83749 -66.64697 30969 ft 513 kts 56°
2026-04-25 13:39 10.87743 -66.58688 30967 ft 513 kts 56°
2026-04-25 13:40 10.91746 -66.52661 30963 ft 515 kts 56°
2026-04-25 13:40 10.95758 -66.46617 30964 ft 516 kts 56°
2026-04-25 13:41 10.99779 -66.40556 30965 ft 517 kts 56°
2026-04-25 13:41 11.03816 -66.34481 30962 ft 518 kts 56°
2026-04-25 13:42 11.07912 -66.28442 30960 ft 519 kts 56°
2026-04-25 13:42 11.12026 -66.22408 30961 ft 519 kts 56°
2026-04-25 13:43 11.16139 -66.16355 30964 ft 520 kts 56°
2026-04-25 13:43 11.20247 -66.10292 30967 ft 520 kts 56°
2026-04-25 13:44 11.24360 -66.04216 30968 ft 521 kts 56°
2026-04-25 13:44 11.28469 -65.98144 30967 ft 521 kts 56°
2026-04-25 13:45 11.32581 -65.92066 30967 ft 520 kts 56°
2026-04-25 13:45 11.36679 -65.86002 30963 ft 519 kts 56°
2026-04-25 13:46 11.40775 -65.79939 30965 ft 519 kts 56°
2026-04-25 13:46 11.44180 -65.74896 30969 ft 520 kts 56°
2026-04-25 13:47 11.48281 -65.68815 30970 ft 520 kts 56°
2026-04-25 13:47 11.52376 -65.62737 30967 ft 521 kts 56°
2026-04-25 13:48 11.57136 -65.55668 30966 ft 519 kts 56°
2026-04-25 13:48 11.61216 -65.49601 30965 ft 518 kts 56°
2026-04-25 13:49 11.64632 -65.44521 30966 ft 518 kts 56°
2026-04-25 13:49 11.68714 -65.38464 30966 ft 518 kts 56°
2026-04-25 13:50 11.72869 -65.32451 30968 ft 519 kts 55°
2026-04-25 13:50 11.77057 -65.26434 30973 ft 520 kts 56°
2026-04-25 13:51 11.81231 -65.20413 30963 ft 520 kts 56°
2026-04-25 13:51 11.85396 -65.14383 30966 ft 519 kts 56°
2026-04-25 13:52 11.89557 -65.08353 30965 ft 519 kts 56°
2026-04-25 13:52 11.93714 -65.02326 30964 ft 519 kts 56°
2026-04-25 13:53 11.97872 -64.96294 30967 ft 519 kts 55°
2026-04-25 13:53 12.02030 -64.90259 30970 ft 520 kts 55°
2026-04-25 13:54 12.06163 -64.84258 30967 ft 520 kts 55°
2026-04-25 13:54 12.10324 -64.78211 30968 ft 520 kts 55°
2026-04-25 13:55 12.14483 -64.72163 30972 ft 520 kts 55°
2026-04-25 13:55 12.18638 -64.66117 30969 ft 520 kts 55°
2026-04-25 13:56 12.22794 -64.60066 30965 ft 520 kts 55°
2026-04-25 13:56 12.26947 -64.54015 30973 ft 520 kts 55°
2026-04-25 13:57 12.31103 -64.47955 30972 ft 520 kts 55°
2026-04-25 13:57 12.35252 -64.41903 30972 ft 520 kts 55°
2026-04-25 13:58 12.39178 -64.36133 30973 ft 520 kts 56°
2026-04-25 13:58 12.43282 -64.30041 30973 ft 520 kts 56°
2026-04-25 13:59 12.47380 -64.23954 30975 ft 520 kts 56°
2026-04-25 13:59 12.51482 -64.17867 30972 ft 519 kts 56°
2026-04-25 14:00 12.55583 -64.11781 30971 ft 520 kts 55°
2026-04-25 14:00 12.59688 -64.05685 30979 ft 520 kts 56°
2026-04-25 14:01 12.63788 -63.99591 30979 ft 519 kts 55°
2026-04-25 14:01 12.67881 -63.93504 30977 ft 519 kts 55°
2026-04-25 14:02 12.71973 -63.87414 30977 ft 519 kts 55°
2026-04-25 14:02 12.76056 -63.81332 30978 ft 518 kts 55°
2026-04-25 14:03 12.80145 -63.75240 30978 ft 518 kts 55°
2026-04-25 14:03 12.84237 -63.69162 30981 ft 519 kts 55°
2026-04-25 14:04 12.88444 -63.63149 30980 ft 519 kts 51°
2026-04-25 14:04 12.93035 -63.57424 30982 ft 520 kts 50°
2026-04-25 14:05 12.97697 -63.51755 30982 ft 520 kts 50°
2026-04-25 14:05 13.02377 -63.45992 30992 ft 531 kts 50°
2026-04-25 14:06 13.07108 -63.40101 30984 ft 539 kts 50°
2026-04-25 14:06 13.11893 -63.34119 30987 ft 544 kts 51°
2026-04-25 14:07 13.16703 -63.28107 30983 ft 545 kts 51°
2026-04-25 14:07 13.21516 -63.22091 30979 ft 545 kts 50°
2026-04-25 14:08 13.26326 -63.16077 30978 ft 545 kts 51°
2026-04-25 14:08 13.31131 -63.10065 30979 ft 544 kts 51°
2026-04-25 14:09 13.35926 -63.04061 30986 ft 543 kts 51°
2026-04-25 14:09 13.40719 -62.98055 30981 ft 544 kts 51°
2026-04-25 14:10 13.45515 -62.92040 30988 ft 545 kts 51°
2026-04-25 14:10 13.50285 -62.86055 30984 ft 545 kts 51°
2026-04-25 14:11 13.55094 -62.80018 30982 ft 545 kts 51°
2026-04-25 14:11 13.59891 -62.73989 30985 ft 545 kts 51°
2026-04-25 14:12 13.64687 -62.67958 30985 ft 544 kts 51°
2026-04-25 14:12 13.69483 -62.61923 30986 ft 546 kts 51°
2026-04-25 14:13 13.74287 -62.55873 30989 ft 547 kts 51°
2026-04-25 14:13 13.79110 -62.49797 30987 ft 547 kts 51°
2026-04-25 14:14 13.83913 -62.43740 30984 ft 547 kts 51°
2026-04-25 14:14 13.88719 -62.37673 30986 ft 547 kts 51°
2026-04-25 14:15 13.93526 -62.31603 30991 ft 547 kts 51°
2026-04-25 14:15 13.98335 -62.25525 30990 ft 548 kts 51°
2026-04-25 14:16 14.03151 -62.19434 30987 ft 549 kts 51°
2026-04-25 14:16 14.07974 -62.13329 30990 ft 550 kts 51°
2026-04-25 14:17 14.12804 -62.07212 30989 ft 550 kts 51°
2026-04-25 14:17 14.17636 -62.01087 30986 ft 551 kts 51°
2026-04-25 14:18 14.22466 -61.94960 30985 ft 551 kts 51°
2026-04-25 14:18 14.27299 -61.88824 30989 ft 552 kts 51°
2026-04-25 14:19 14.32138 -61.82677 30990 ft 552 kts 51°
2026-04-25 14:19 14.36458 -61.77184 30989 ft 553 kts 51°
2026-04-25 14:20 14.41301 -61.71023 30991 ft 553 kts 51°
2026-04-25 14:20 14.46139 -61.64862 30988 ft 553 kts 51°
2026-04-25 14:21 14.50978 -61.58695 30989 ft 553 kts 51°
2026-04-25 14:21 14.55829 -61.52510 30990 ft 554 kts 51°
2026-04-25 14:22 14.60646 -61.46362 30987 ft 555 kts 51°
2026-04-25 14:22 14.65498 -61.40166 30992 ft 555 kts 51°
2026-04-25 14:23 14.70350 -61.33963 30992 ft 555 kts 51°
2026-04-25 14:23 14.75197 -61.27763 31002 ft 555 kts 51°
2026-04-25 14:24 14.80050 -61.21549 31000 ft 556 kts 51°
2026-04-25 14:24 14.84941 -61.15281 30998 ft 557 kts 51°
2026-04-25 14:25 14.89767 -61.09093 30999 ft 556 kts 51°
2026-04-25 14:25 14.94624 -61.02867 30997 ft 556 kts 51°
2026-04-25 14:26 14.99476 -60.96639 31001 ft 556 kts 51°
2026-04-25 14:26 15.04329 -60.90404 31004 ft 557 kts 51°
2026-04-25 14:27 15.09184 -60.84162 31006 ft 557 kts 51°
2026-04-25 14:27 15.14042 -60.77910 31002 ft 557 kts 51°
2026-04-25 14:28 15.18904 -60.71648 31005 ft 557 kts 51°
2026-04-25 14:28 15.23754 -60.65395 31006 ft 557 kts 51°
2026-04-25 14:29 15.28610 -60.59130 31006 ft 558 kts 51°
2026-04-25 14:29 15.33466 -60.52861 31006 ft 558 kts 51°
2026-04-25 14:30 15.38331 -60.46575 31004 ft 559 kts 51°
2026-04-25 14:30 15.45622 -60.37144 31006 ft 559 kts 51°
2026-04-25 14:31 15.50475 -60.30859 31005 ft 559 kts 51°
2026-04-25 14:31 15.55301 -60.24603 31008 ft 559 kts 51°
2026-04-25 14:32 15.60157 -60.18307 31007 ft 559 kts 51°
2026-04-25 14:32 15.64226 -60.13025 31009 ft 559 kts 51°
2026-04-25 14:33 15.69081 -60.06718 31006 ft 559 kts 51°
2026-04-25 14:33 15.73933 -60.00409 31008 ft 559 kts 51°
2026-04-25 14:34 15.78780 -59.94102 31008 ft 559 kts 51°
2026-04-25 14:34 15.83622 -59.87796 31002 ft 558 kts 51°
2026-04-25 14:35 15.88464 -59.81484 31008 ft 558 kts 51°
2026-04-25 14:35 15.93294 -59.75182 31007 ft 557 kts 51°
2026-04-25 14:36 15.98119 -59.68882 31007 ft 557 kts 51°
2026-04-25 14:36 16.02939 -59.62581 31009 ft 557 kts 51°
2026-04-25 14:37 16.07765 -59.56269 31012 ft 558 kts 51°
2026-04-25 14:37 16.12587 -59.49955 31010 ft 558 kts 51°
2026-04-25 14:38 16.17417 -59.43626 31009 ft 558 kts 51°
2026-04-25 14:38 16.22247 -59.37293 31009 ft 559 kts 51°
2026-04-25 14:39 16.27074 -59.30957 31007 ft 559 kts 51°
2026-04-25 14:39 16.31897 -59.24620 31014 ft 559 kts 51°
2026-04-25 14:40 16.36692 -59.18312 31015 ft 560 kts 51°
2026-04-25 14:40 16.41984 -59.11345 31014 ft 560 kts 51°
2026-04-25 14:41 16.46787 -59.05016 31015 ft 561 kts 51°
2026-04-25 14:41 16.51615 -58.98648 31013 ft 560 kts 51°
2026-04-25 14:42 16.54845 -58.94384 31020 ft 559 kts 51°
2026-04-25 14:42 16.60484 -58.86935 31011 ft 561 kts 51°
2026-04-25 14:43 16.66040 -58.79589 31013 ft 562 kts 51°
2026-04-25 14:43 16.70845 -58.73228 31013 ft 562 kts 51°
2026-04-25 14:44 16.75711 -58.66781 31019 ft 562 kts 51°
2026-04-25 14:44 16.80550 -58.60363 31008 ft 563 kts 51°
2026-04-25 14:45 16.85396 -58.53931 31024 ft 564 kts 51°
2026-04-25 14:45 16.90245 -58.47490 31020 ft 564 kts 51°
2026-04-25 14:46 16.95060 -58.41086 31026 ft 564 kts 51°
2026-04-25 14:46 16.99936 -58.34595 31027 ft 564 kts 51°
2026-04-25 14:47 17.03138 -58.30330 31018 ft 563 kts 51°
2026-04-25 14:47 17.09579 -58.21742 31034 ft 565 kts 51°
2026-04-25 14:48 17.14426 -58.15273 31030 ft 565 kts 51°
2026-04-25 14:48 17.19267 -58.08804 31031 ft 565 kts 51°
2026-04-25 14:49 17.24111 -58.02326 31015 ft 565 kts 51°
2026-04-25 14:49 17.28949 -57.95849 31017 ft 565 kts 51°
2026-04-25 14:50 17.33789 -57.89365 31041 ft 566 kts 51°
2026-04-25 14:50 17.38634 -57.82866 31022 ft 566 kts 51°
2026-04-25 14:51 17.43474 -57.76368 31022 ft 566 kts 51°
2026-04-25 14:51 17.48310 -57.69868 31040 ft 566 kts 51°
2026-04-25 14:52 17.53153 -57.63353 31027 ft 566 kts 51°
2026-04-25 14:52 17.56388 -57.58998 31031 ft 566 kts 51°
2026-04-25 14:53 17.62831 -57.50314 31029 ft 567 kts 51°
2026-04-25 14:53 17.67666 -57.43793 31028 ft 567 kts 51°
2026-04-25 14:54 17.72506 -57.37259 31029 ft 567 kts 51°
2026-04-25 14:54 17.77339 -57.30726 31038 ft 567 kts 51°
2026-04-25 14:55 17.82174 -57.24183 31031 ft 567 kts 51°
2026-04-25 14:55 17.87010 -57.17633 31035 ft 568 kts 51°
2026-04-25 14:56 17.91843 -57.11078 31032 ft 568 kts 51°
2026-04-25 14:56 17.96668 -57.04529 31034 ft 567 kts 51°
2026-04-25 14:57 18.01127 -56.97684 31037 ft 568 kts 60°
2026-04-25 14:57 18.04576 -56.90221 31045 ft 569 kts 65°
2026-04-25 14:58 18.07346 -56.83950 31034 ft 569 kts 65°
2026-04-25 14:58 18.11290 -56.75143 31036 ft 569 kts 64°
2026-04-25 14:59 18.14117 -56.68903 31034 ft 569 kts 64°
2026-04-25 14:59 18.17526 -56.61392 31036 ft 569 kts 64°
2026-04-25 15:00 18.20869 -56.54012 31035 ft 569 kts 64°
2026-04-25 15:00 18.24260 -56.46507 31038 ft 568 kts 64°
2026-04-25 15:01 18.27622 -56.39054 31039 ft 567 kts 64°
2026-04-25 15:01 18.30998 -56.31561 31038 ft 567 kts 64°
2026-04-25 15:02 18.34375 -56.24056 31036 ft 567 kts 64°
2026-04-25 15:02 18.37741 -56.16568 31044 ft 566 kts 64°
2026-04-25 15:03 18.41112 -56.09058 31040 ft 567 kts 65°
2026-04-25 15:03 18.44484 -56.01538 31042 ft 568 kts 65°
2026-04-25 15:04 18.47853 -55.94013 31042 ft 569 kts 65°
2026-04-25 15:04 18.51226 -55.86470 31041 ft 569 kts 65°
2026-04-25 15:05 18.54598 -55.78920 31042 ft 569 kts 65°
2026-04-25 15:06 18.59649 -55.67592 31047 ft 570 kts 65°
2026-04-25 15:06 18.63020 -55.60021 31045 ft 571 kts 65°
2026-04-25 15:07 18.66390 -55.52441 31040 ft 571 kts 65°
2026-04-25 15:07 18.69732 -55.44913 31045 ft 570 kts 65°
2026-04-25 15:08 18.73089 -55.37345 31042 ft 570 kts 65°
2026-04-25 15:08 18.76442 -55.29773 31045 ft 569 kts 65°
2026-04-25 15:09 18.79794 -55.22195 31048 ft 570 kts 65°
2026-04-25 15:09 18.84820 -55.10811 31047 ft 570 kts 65°
2026-04-25 15:10 18.88169 -55.03216 31045 ft 571 kts 65°
2026-04-25 15:11 18.93184 -54.91821 31049 ft 570 kts 65°
2026-04-25 15:11 18.96517 -54.84235 31062 ft 570 kts 65°
2026-04-25 15:12 19.01526 -54.72816 31048 ft 571 kts 64°
2026-04-25 15:12 19.04301 -54.66480 31050 ft 571 kts 65°
2026-04-25 15:13 19.09859 -54.53770 31049 ft 571 kts 65°
2026-04-25 15:14 19.13185 -54.46147 31048 ft 570 kts 64°
2026-04-25 15:14 19.16485 -54.38577 31055 ft 571 kts 64°
2026-04-25 15:15 19.19825 -54.30904 31054 ft 571 kts 65°
2026-04-25 15:15 19.23125 -54.23314 31049 ft 571 kts 64°
2026-04-25 15:16 19.26442 -54.15672 31056 ft 571 kts 64°
2026-04-25 15:16 19.31411 -54.04206 31054 ft 571 kts 65°
2026-04-25 15:17 19.36376 -53.92726 31058 ft 572 kts 64°
2026-04-25 15:18 19.39685 -53.85062 31052 ft 572 kts 65°
2026-04-25 15:18 19.44641 -53.73563 31055 ft 572 kts 64°
2026-04-25 15:19 19.47383 -53.67191 31058 ft 572 kts 65°
2026-04-25 15:19 19.51238 -53.58221 31068 ft 572 kts 65°
2026-04-25 15:20 19.54533 -53.50540 31057 ft 573 kts 65°
2026-04-25 15:20 19.57825 -53.42858 31058 ft 573 kts 65°
2026-04-25 15:21 19.61118 -53.35162 31053 ft 573 kts 65°
2026-04-25 15:21 19.64412 -53.27452 31061 ft 573 kts 65°
2026-04-25 15:22 19.67696 -53.19755 31057 ft 573 kts 65°
2026-04-25 15:22 19.70981 -53.12045 31058 ft 573 kts 65°
2026-04-25 15:23 19.74262 -53.04334 31059 ft 573 kts 65°
2026-04-25 15:23 19.77541 -52.96614 31058 ft 573 kts 65°
2026-04-25 15:24 19.80817 -52.88893 31062 ft 573 kts 65°
2026-04-25 15:24 19.83534 -52.82480 31056 ft 573 kts 65°
2026-04-25 15:25 19.87356 -52.73448 31062 ft 574 kts 65°
2026-04-25 15:25 19.90625 -52.65710 31059 ft 574 kts 65°
2026-04-25 15:26 19.93872 -52.58012 31060 ft 574 kts 65°
2026-04-25 15:26 19.97130 -52.50277 31060 ft 574 kts 65°
2026-04-25 15:27 20.00389 -52.42528 31058 ft 574 kts 65°
2026-04-25 15:28 20.05269 -52.30906 31064 ft 574 kts 65°
2026-04-25 15:28 20.08516 -52.23158 31063 ft 573 kts 65°
2026-04-25 15:29 20.11756 -52.15418 31060 ft 573 kts 65°
2026-04-25 15:29 20.14996 -52.07664 31061 ft 573 kts 65°
2026-04-25 15:30 20.18229 -51.99914 31072 ft 573 kts 65°
2026-04-25 15:30 20.21465 -51.92149 31066 ft 574 kts 65°
2026-04-25 15:31 20.24699 -51.84377 31063 ft 574 kts 65°
2026-04-25 15:31 20.27931 -51.76596 31064 ft 575 kts 65°
2026-04-25 15:32 20.31158 -51.68817 31062 ft 575 kts 65°
2026-04-25 15:32 20.34386 -51.61023 31066 ft 575 kts 65°
2026-04-25 15:33 20.39223 -51.49323 31059 ft 575 kts 65°
2026-04-25 15:33 20.42443 -51.41519 31064 ft 575 kts 65°
2026-04-25 15:34 20.45663 -51.33705 31071 ft 575 kts 65°
2026-04-25 15:34 20.47792 -51.28532 31064 ft 575 kts 65°
2026-04-25 15:35 20.53673 -51.14215 31073 ft 576 kts 65°
2026-04-25 15:36 20.58484 -51.02473 31066 ft 576 kts 65°
2026-04-25 15:36 20.61691 -50.94632 31069 ft 576 kts 65°
2026-04-25 15:37 20.64892 -50.86791 31061 ft 576 kts 65°
2026-04-25 15:37 20.68094 -50.78938 31075 ft 577 kts 65°
2026-04-25 15:38 20.71292 -50.71082 31071 ft 577 kts 65°
2026-04-25 15:38 20.74489 -50.63214 31058 ft 577 kts 65°
2026-04-25 15:39 20.77684 -50.55341 31072 ft 577 kts 65°
2026-04-25 15:39 20.80875 -50.47466 31060 ft 577 kts 65°
2026-04-25 15:40 20.83019 -50.42168 31082 ft 577 kts 65°
2026-04-25 15:40 20.87243 -50.31714 31076 ft 578 kts 65°
2026-04-25 15:41 20.90425 -50.23824 31071 ft 578 kts 65°
2026-04-25 15:41 20.93603 -50.15930 31072 ft 578 kts 65°
2026-04-25 15:42 20.96772 -50.08045 31068 ft 577 kts 65°
2026-04-25 15:42 20.99871 -50.00108 31055 ft 579 kts 69°
2026-04-25 15:43 21.02045 -49.91823 31075 ft 579 kts 76°
2026-04-25 15:43 21.03909 -49.83421 31061 ft 580 kts 76°
2026-04-25 15:44 21.05797 -49.75025 31075 ft 580 kts 76°
2026-04-25 15:44 21.07727 -49.66637 31074 ft 580 kts 75°
2026-04-25 15:45 21.09656 -49.58310 31083 ft 580 kts 75°
2026-04-25 15:45 21.10952 -49.52697 31066 ft 581 kts 75°
2026-04-25 15:46 21.13522 -49.41515 31064 ft 581 kts 75°
2026-04-25 15:46 21.15446 -49.33112 31078 ft 581 kts 75°
2026-04-25 15:47 21.17366 -49.24706 31066 ft 581 kts 75°
2026-04-25 15:47 21.19281 -49.16298 31064 ft 581 kts 75°
2026-04-25 15:48 21.21192 -49.07894 31073 ft 581 kts 75°
2026-04-25 15:48 21.22778 -49.00902 31088 ft 581 kts 75°
2026-04-25 15:49 21.24682 -48.92490 31068 ft 581 kts 75°
2026-04-25 15:49 21.26582 -48.84074 31067 ft 581 kts 75°
2026-04-25 15:50 21.28479 -48.75649 31070 ft 581 kts 75°
2026-04-25 15:50 21.30369 -48.67234 31081 ft 581 kts 75°
2026-04-25 15:51 21.31940 -48.60226 31081 ft 581 kts 75°
2026-04-25 15:51 21.34144 -48.50370 31075 ft 582 kts 75°
2026-04-25 15:52 21.36026 -48.41928 31077 ft 582 kts 75°
2026-04-25 15:52 21.37904 -48.33485 31080 ft 582 kts 75°
2026-04-25 15:53 21.39777 -48.25042 31077 ft 582 kts 75°
2026-04-25 15:53 21.41645 -48.16601 31087 ft 581 kts 75°
2026-04-25 15:54 21.43509 -48.08158 31075 ft 581 kts 75°
2026-04-25 15:54 21.45366 -47.99726 31072 ft 581 kts 75°
2026-04-25 15:55 21.47207 -47.91344 31073 ft 581 kts 75°
2026-04-25 15:55 21.49055 -47.82906 31083 ft 580 kts 75°
2026-04-25 15:56 21.50896 -47.74482 31077 ft 580 kts 75°
2026-04-25 15:56 21.52734 -47.66050 31079 ft 580 kts 75°
2026-04-25 15:57 21.54567 -47.57619 31075 ft 580 kts 75°
2026-04-25 15:57 21.56397 -47.49181 31079 ft 580 kts 75°
2026-04-25 15:58 21.58223 -47.40737 31076 ft 580 kts 75°
2026-04-25 15:58 21.60045 -47.32294 31082 ft 580 kts 75°
2026-04-25 15:59 21.61860 -47.23858 31079 ft 580 kts 75°
2026-04-25 15:59 21.63673 -47.15410 31080 ft 580 kts 75°
2026-04-25 16:00 21.64884 -47.09752 31082 ft 580 kts 75°
2026-04-25 16:00 21.67289 -46.98497 31085 ft 581 kts 75°
2026-04-25 16:01 21.69091 -46.90033 31083 ft 581 kts 75°
2026-04-25 16:01 21.70889 -46.81568 31082 ft 581 kts 75°
2026-04-25 16:02 21.72683 -46.73102 31087 ft 581 kts 75°
2026-04-25 16:02 21.74472 -46.64630 31084 ft 581 kts 75°
2026-04-25 16:03 21.76259 -46.56148 31085 ft 581 kts 75°
2026-04-25 16:03 21.78042 -46.47662 31084 ft 581 kts 75°
2026-04-25 16:04 21.79821 -46.39174 31085 ft 581 kts 75°
2026-04-25 16:04 21.81594 -46.30688 31095 ft 581 kts 75°
2026-04-25 16:05 21.83366 -46.22191 31084 ft 582 kts 75°
2026-04-25 16:06 21.86016 -46.09434 31088 ft 582 kts 75°
2026-04-25 16:06 21.87776 -46.00933 31087 ft 582 kts 75°
2026-04-25 16:07 21.89533 -45.92425 31086 ft 582 kts 75°
2026-04-25 16:07 21.91285 -45.83916 31094 ft 582 kts 75°
2026-04-25 16:08 21.93024 -45.75449 31086 ft 583 kts 75°
2026-04-25 16:08 21.94770 -45.66923 31091 ft 583 kts 75°
2026-04-25 16:09 21.96511 -45.58395 31089 ft 583 kts 75°
2026-04-25 16:09 21.98246 -45.49873 31090 ft 583 kts 75°
2026-04-25 16:10 21.99980 -45.41337 31098 ft 583 kts 75°
2026-04-25 16:10 22.01710 -45.32795 31090 ft 584 kts 75°
2026-04-25 16:11 22.03438 -45.24239 31087 ft 584 kts 75°
2026-04-25 16:11 22.05162 -45.15676 31086 ft 584 kts 75°
2026-04-25 16:12 22.06880 -45.07122 31090 ft 584 kts 75°
2026-04-25 16:12 22.08594 -44.98560 31092 ft 585 kts 75°
2026-04-25 16:13 22.10308 -44.89979 31089 ft 585 kts 75°
2026-04-25 16:13 22.12017 -44.81397 31089 ft 585 kts 75°
2026-04-25 16:14 22.13719 -44.72820 31089 ft 585 kts 75°
2026-04-25 16:14 22.15421 -44.64221 31092 ft 585 kts 75°
2026-04-25 16:15 22.17116 -44.55636 31096 ft 586 kts 75°
2026-04-25 16:15 22.18808 -44.47038 31095 ft 586 kts 75°
2026-04-25 16:16 22.20497 -44.38431 31096 ft 587 kts 75°
2026-04-25 16:16 22.22185 -44.29809 31093 ft 587 kts 75°
2026-04-25 16:17 22.23867 -44.21186 31104 ft 588 kts 75°
2026-04-25 16:17 22.25537 -44.12599 31098 ft 589 kts 75°
2026-04-25 16:18 22.27215 -44.03949 31091 ft 589 kts 75°
2026-04-25 16:18 22.28889 -43.95290 31100 ft 589 kts 75°
2026-04-25 16:19 22.30558 -43.86632 31093 ft 589 kts 75°
2026-04-25 16:19 22.32223 -43.77970 31092 ft 589 kts 75°
2026-04-25 16:20 22.34710 -43.64983 31097 ft 589 kts 75°
2026-04-25 16:21 22.37187 -43.51991 31095 ft 589 kts 75°
2026-04-25 16:21 22.38833 -43.43321 31093 ft 589 kts 75°
2026-04-25 16:22 22.40473 -43.34659 31110 ft 588 kts 75°
2026-04-25 16:22 22.42109 -43.25992 31086 ft 588 kts 75°
2026-04-25 16:23 22.43740 -43.17327 31102 ft 588 kts 75°
2026-04-25 16:23 22.45364 -43.08671 31101 ft 588 kts 75°
2026-04-25 16:24 22.46984 -43.00005 31104 ft 588 kts 76°
2026-04-25 16:24 22.48600 -42.91339 31100 ft 588 kts 76°
2026-04-25 16:25 22.50211 -42.82675 31098 ft 588 kts 76°
2026-04-25 16:25 22.51805 -42.74068 31098 ft 588 kts 76°
2026-04-25 16:26 22.53406 -42.65402 31102 ft 587 kts 76°
2026-04-25 16:26 22.55013 -42.56675 31112 ft 588 kts 76°
2026-04-25 16:27 22.56593 -42.48067 31102 ft 588 kts 76°
2026-04-25 16:27 22.58181 -42.39392 31109 ft 588 kts 76°
2026-04-25 16:28 22.59764 -42.30713 31107 ft 588 kts 76°
2026-04-25 16:28 22.61343 -42.22028 31103 ft 588 kts 76°
2026-04-25 16:29 22.62916 -42.13346 31104 ft 588 kts 76°
2026-04-25 16:29 22.64485 -42.04661 31103 ft 588 kts 76°
2026-04-25 16:30 22.66049 -41.95975 31102 ft 588 kts 76°
2026-04-25 16:30 22.67608 -41.87292 31105 ft 587 kts 76°
2026-04-25 16:31 22.69161 -41.78611 31105 ft 587 kts 76°
2026-04-25 16:31 22.70709 -41.69931 31109 ft 587 kts 76°
2026-04-25 16:32 22.72251 -41.61261 31106 ft 587 kts 76°
2026-04-25 16:32 22.73788 -41.52582 31103 ft 586 kts 76°
2026-04-25 16:33 22.75319 -41.43914 31107 ft 586 kts 76°
2026-04-25 16:33 22.76845 -41.35244 31106 ft 586 kts 76°
2026-04-25 16:34 22.78365 -41.26581 31103 ft 586 kts 76°
2026-04-25 16:34 22.79627 -41.19369 31103 ft 586 kts 76°
2026-04-25 16:35 22.81138 -41.10703 31105 ft 586 kts 76°
2026-04-25 16:35 22.82646 -41.02027 31106 ft 586 kts 76°
2026-04-25 16:36 22.84149 -40.93348 31107 ft 586 kts 76°
2026-04-25 16:36 22.85646 -40.84677 31109 ft 586 kts 76°
2026-04-25 16:37 22.87141 -40.75993 31105 ft 586 kts 76°
2026-04-25 16:37 22.88628 -40.67319 31116 ft 585 kts 77°
2026-04-25 16:38 22.90112 -40.58635 31106 ft 585 kts 77°
2026-04-25 16:38 22.91591 -40.49953 31106 ft 585 kts 77°
2026-04-25 16:39 22.93066 -40.41265 31110 ft 585 kts 77°
2026-04-25 16:39 22.94535 -40.32580 31108 ft 585 kts 77°
2026-04-25 16:40 22.95999 -40.23895 31115 ft 585 kts 77°
2026-04-25 16:40 22.97458 -40.15207 31103 ft 585 kts 77°
2026-04-25 16:41 22.98867 -40.06513 31111 ft 586 kts 80°
2026-04-25 16:41 22.98500 -39.93221 31105 ft 591 kts 100°
2026-04-25 16:42 22.96506 -39.84622 31122 ft 591 kts 105°
2026-04-25 16:42 22.94346 -39.76015 31118 ft 592 kts 105°
2026-04-25 16:43 22.92240 -39.67379 31110 ft 592 kts 104°
2026-04-25 16:43 22.90177 -39.58724 31111 ft 593 kts 104°
2026-04-25 16:44 22.88119 -39.50064 31115 ft 593 kts 104°
2026-04-25 16:44 22.86049 -39.41402 31109 ft 593 kts 104°
2026-04-25 16:45 22.83972 -39.32760 31116 ft 593 kts 104°
2026-04-25 16:45 22.81887 -39.24109 31109 ft 593 kts 104°
2026-04-25 16:46 22.79797 -39.15459 31111 ft 593 kts 104°
2026-04-25 16:46 22.78059 -39.08277 31114 ft 593 kts 104°
2026-04-25 16:47 22.75606 -38.98169 31099 ft 593 kts 104°
2026-04-25 16:47 22.73503 -38.89526 31109 ft 593 kts 104°
2026-04-25 16:48 22.71395 -38.80885 31110 ft 593 kts 105°
2026-04-25 16:48 22.69283 -38.72248 31109 ft 593 kts 105°
2026-04-25 16:49 22.67180 -38.63671 31115 ft 593 kts 105°
2026-04-25 16:49 22.65058 -38.55036 31108 ft 594 kts 105°
2026-04-25 16:50 22.62931 -38.46403 31099 ft 593 kts 105°
2026-04-25 16:50 22.60799 -38.37775 31114 ft 593 kts 105°
2026-04-25 16:51 22.58665 -38.29156 31111 ft 594 kts 105°
2026-04-25 16:51 22.56884 -38.21980 31114 ft 594 kts 105°
2026-04-25 16:52 22.54376 -38.11897 31107 ft 594 kts 105°
2026-04-25 16:52 22.52223 -38.03267 31103 ft 594 kts 105°
2026-04-25 16:53 22.48984 -37.90323 31106 ft 595 kts 105°
2026-04-25 16:54 22.46818 -37.81690 31104 ft 595 kts 105°
2026-04-25 16:54 22.44646 -37.73058 31104 ft 595 kts 105°
2026-04-25 16:55 22.42470 -37.64432 31098 ft 595 kts 105°
2026-04-25 16:55 22.40288 -37.55797 31107 ft 596 kts 105°
2026-04-25 16:56 22.38101 -37.47167 31109 ft 595 kts 105°
2026-04-25 16:56 22.35910 -37.38544 31105 ft 595 kts 105°
2026-04-25 16:57 22.33714 -37.29921 31102 ft 595 kts 105°
2026-04-25 16:57 22.31514 -37.21300 31114 ft 595 kts 105°
2026-04-25 16:58 22.29310 -37.12685 31098 ft 596 kts 105°
2026-04-25 16:58 22.27099 -37.04062 31089 ft 596 kts 105°
2026-04-25 16:59 22.24884 -36.95448 31106 ft 595 kts 105°
2026-04-25 16:59 22.22665 -36.86837 31102 ft 595 kts 105°
2026-04-25 17:00 22.20442 -36.78230 31103 ft 595 kts 105°
2026-04-25 17:00 22.18229 -36.69679 31113 ft 596 kts 105°
2026-04-25 17:01 22.15993 -36.61062 31107 ft 597 kts 105°
2026-04-25 17:01 22.13754 -36.52454 31089 ft 596 kts 105°
2026-04-25 17:02 22.11510 -36.43848 31102 ft 596 kts 105°
2026-04-25 17:02 22.09263 -36.35250 31105 ft 595 kts 105°
2026-04-25 17:03 22.07013 -36.26657 31103 ft 595 kts 105°
2026-04-25 17:03 22.04760 -36.18076 31103 ft 596 kts 105°
2026-04-25 17:04 22.02500 -36.09482 31104 ft 596 kts 105°
2026-04-25 17:04 22.00231 -36.00891 31093 ft 596 kts 106°
2026-04-25 17:05 21.97472 -35.92479 31111 ft 596 kts 111°
2026-04-25 17:05 21.92978 -35.79990 31100 ft 596 kts 111°
2026-04-25 17:06 21.90006 -35.71649 31110 ft 597 kts 111°
2026-04-25 17:06 21.87058 -35.63302 31104 ft 597 kts 111°
2026-04-25 17:07 21.84107 -35.54943 31089 ft 597 kts 111°
2026-04-25 17:07 21.81150 -35.46595 31104 ft 597 kts 111°
2026-04-25 17:08 21.78189 -35.38260 31101 ft 597 kts 111°
2026-04-25 17:08 21.75217 -35.29915 31098 ft 597 kts 111°
2026-04-25 17:09 21.72243 -35.21573 31098 ft 598 kts 111°
2026-04-25 17:09 21.69260 -35.13224 31077 ft 598 kts 111°
2026-04-25 17:10 21.66296 -35.04940 31093 ft 597 kts 111°
2026-04-25 17:10 21.63290 -34.96556 31098 ft 597 kts 111°
2026-04-25 17:11 21.60298 -34.88226 31096 ft 598 kts 111°
2026-04-25 17:11 21.57321 -34.79953 31092 ft 598 kts 111°
2026-04-25 17:12 21.54317 -34.71618 31100 ft 598 kts 111°
2026-04-25 17:12 21.51307 -34.63284 31086 ft 598 kts 111°
2026-04-25 17:13 21.49295 -34.57719 31092 ft 598 kts 111°
2026-04-25 17:13 21.45284 -34.46649 31101 ft 598 kts 111°
2026-04-25 17:14 21.42263 -34.38328 31090 ft 599 kts 111°
2026-04-25 17:14 21.39235 -34.30003 31090 ft 599 kts 111°
2026-04-25 17:15 21.36203 -34.21679 31076 ft 599 kts 111°
2026-04-25 17:15 21.33169 -34.13367 31088 ft 598 kts 111°
2026-04-25 17:16 21.30132 -34.05059 31092 ft 598 kts 111°
2026-04-25 17:16 21.27094 -33.96765 31092 ft 598 kts 111°
2026-04-25 17:17 21.24050 -33.88467 31087 ft 598 kts 111°
2026-04-25 17:17 21.21000 -33.80170 31087 ft 598 kts 111°
2026-04-25 17:18 21.17949 -33.71883 31074 ft 597 kts 112°
2026-04-25 17:18 21.14904 -33.63625 31086 ft 597 kts 112°
2026-04-25 17:19 21.11850 -33.55360 31087 ft 596 kts 112°
2026-04-25 17:19 21.08792 -33.47098 31088 ft 597 kts 112°
2026-04-25 17:20 21.05730 -33.38839 31091 ft 597 kts 112°
2026-04-25 17:20 21.02684 -33.30635 31085 ft 598 kts 112°
2026-04-25 17:21 21.00107 -33.23708 31081 ft 598 kts 112°
2026-04-25 17:21 20.96527 -33.14098 31089 ft 599 kts 112°
2026-04-25 17:22 20.94462 -33.08565 31081 ft 599 kts 112°
2026-04-25 17:22 20.90340 -32.97536 31079 ft 600 kts 112°
2026-04-25 17:23 20.87763 -32.90655 31077 ft 600 kts 112°
2026-04-25 17:23 20.84655 -32.82370 31061 ft 601 kts 112°
2026-04-25 17:24 20.81545 -32.74092 31073 ft 599 kts 112°
2026-04-25 17:24 20.78439 -32.65838 31073 ft 599 kts 112°
2026-04-25 17:25 20.75326 -32.57581 31079 ft 599 kts 112°
2026-04-25 17:25 20.72205 -32.49316 31073 ft 600 kts 112°
2026-04-25 17:26 20.69084 -32.41063 31074 ft 600 kts 112°
2026-04-25 17:26 20.65954 -32.32802 31065 ft 600 kts 112°
2026-04-25 17:27 20.62822 -32.24548 31070 ft 600 kts 112°
2026-04-25 17:27 20.60196 -32.17639 31071 ft 600 kts 112°
2026-04-25 17:28 20.56545 -32.08049 31071 ft 600 kts 112°
2026-04-25 17:28 20.53398 -31.99797 31068 ft 601 kts 112°
2026-04-25 17:29 20.50245 -31.91543 31067 ft 601 kts 112°
2026-04-25 17:29 20.47091 -31.83299 31055 ft 600 kts 112°
2026-04-25 17:30 20.43936 -31.75063 31065 ft 600 kts 112°
2026-04-25 17:30 20.40688 -31.66874 31061 ft 599 kts 115°
2026-04-25 17:31 20.37123 -31.58846 31063 ft 599 kts 117°
2026-04-25 17:31 20.33496 -31.50852 31070 ft 599 kts 116°
2026-04-25 17:32 20.29918 -31.42824 31060 ft 600 kts 116°
2026-04-25 17:32 20.26378 -31.34780 31051 ft 599 kts 116°
2026-04-25 17:33 20.22847 -31.26748 31059 ft 599 kts 116°
2026-04-25 17:33 20.19306 -31.18724 31057 ft 599 kts 116°
2026-04-25 17:34 20.15756 -31.10706 31054 ft 599 kts 116°
2026-04-25 17:34 20.12204 -31.02694 31055 ft 598 kts 116°
2026-04-25 17:35 20.08673 -30.94741 31048 ft 598 kts 116°
2026-04-25 17:35 20.05096 -30.86695 31057 ft 598 kts 116°
2026-04-25 17:36 20.01535 -30.78698 31059 ft 598 kts 116°
2026-04-25 17:36 19.97974 -30.70710 31054 ft 598 kts 116°
2026-04-25 17:37 19.94408 -30.62725 31056 ft 598 kts 116°
2026-04-25 17:37 19.90841 -30.54747 31051 ft 598 kts 116°
2026-04-25 17:38 19.87871 -30.48115 31040 ft 598 kts 116°
2026-04-25 17:38 19.83695 -30.38803 31052 ft 597 kts 116°
2026-04-25 17:39 19.80147 -30.30901 31049 ft 597 kts 116°
2026-04-25 17:39 19.76574 -30.22957 31049 ft 596 kts 116°
2026-04-25 17:40 19.72997 -30.15015 31049 ft 596 kts 116°
2026-04-25 17:40 19.69416 -30.07077 31055 ft 596 kts 116°
2026-04-25 17:41 19.65833 -29.99143 31039 ft 596 kts 116°
2026-04-25 17:41 19.62252 -29.91227 31044 ft 595 kts 116°
2026-04-25 17:42 19.58668 -29.83314 31042 ft 595 kts 116°
2026-04-25 17:42 19.55084 -29.75414 31046 ft 595 kts 116°
2026-04-25 17:43 19.51496 -29.67514 31040 ft 595 kts 116°
2026-04-25 17:43 19.47901 -29.59610 31041 ft 595 kts 116°
2026-04-25 17:44 19.44308 -29.51724 31045 ft 594 kts 116°
2026-04-25 17:44 19.40718 -29.43852 31036 ft 593 kts 116°
2026-04-25 17:45 19.38340 -29.38645 31038 ft 593 kts 116°
2026-04-25 17:45 19.33559 -29.28190 31035 ft 592 kts 116°
2026-04-25 17:46 19.29940 -29.20287 31037 ft 593 kts 117°
2026-04-25 17:46 19.26338 -29.12436 31036 ft 594 kts 117°
2026-04-25 17:47 19.22731 -29.04583 31027 ft 592 kts 116°
2026-04-25 17:47 19.19131 -28.96755 31033 ft 591 kts 116°
2026-04-25 17:48 19.13733 -28.85037 31031 ft 591 kts 117°
2026-04-25 17:49 19.10153 -28.77278 31034 ft 591 kts 117°
2026-04-25 17:49 19.06540 -28.69461 31027 ft 591 kts 117°
2026-04-25 17:50 19.02930 -28.61657 31029 ft 592 kts 117°
2026-04-25 17:50 18.99308 -28.53842 31024 ft 592 kts 117°
2026-04-25 17:51 18.95684 -28.46031 31026 ft 592 kts 117°
2026-04-25 17:51 18.92051 -28.38209 31021 ft 593 kts 117°
2026-04-25 17:52 18.88416 -28.30396 31019 ft 593 kts 117°
2026-04-25 17:52 18.84779 -28.22587 31019 ft 593 kts 117°
2026-04-25 17:53 18.81142 -28.14791 31008 ft 592 kts 117°
2026-04-25 17:53 18.77503 -28.06999 31021 ft 590 kts 117°
2026-04-25 17:54 18.73875 -27.99241 31015 ft 590 kts 117°
2026-04-25 17:54 18.70244 -27.91487 31020 ft 589 kts 117°
2026-04-25 17:55 18.66611 -27.83741 31019 ft 589 kts 117°
2026-04-25 17:55 18.62972 -27.75989 31021 ft 590 kts 117°
2026-04-25 17:56 18.59356 -27.68297 31005 ft 589 kts 117°
2026-04-25 17:56 18.55720 -27.60574 31013 ft 588 kts 117°
2026-04-25 17:57 18.52086 -27.52864 31024 ft 586 kts 117°
2026-04-25 17:57 18.48458 -27.45175 31013 ft 586 kts 117°
2026-04-25 17:58 18.44853 -27.37544 30995 ft 571 kts 117°
2026-04-25 17:58 18.43104 -27.33845 30995 ft 560 kts 117°
2026-04-25 17:58 18.41368 -27.30178 31005 ft 559 kts 117°
2026-04-25 17:59 18.37899 -27.22857 31007 ft 559 kts 117°
2026-04-25 17:59 18.34422 -27.15526 31015 ft 559 kts 117°
2026-04-25 18:00 18.30954 -27.08222 30995 ft 558 kts 117°
2026-04-25 18:00 18.27488 -27.00931 31016 ft 556 kts 117°
2026-04-25 18:01 18.24024 -26.93654 31004 ft 556 kts 117°
2026-04-25 18:01 18.20564 -26.86393 31008 ft 555 kts 117°
2026-04-25 18:02 18.17100 -26.79134 31009 ft 555 kts 117°
2026-04-25 18:02 18.13632 -26.71872 31012 ft 556 kts 117°
2026-04-25 18:03 18.10166 -26.64626 31004 ft 555 kts 117°
2026-04-25 18:03 18.06700 -26.57386 30999 ft 554 kts 117°
2026-04-25 18:04 18.03235 -26.50158 30999 ft 553 kts 117°
2026-04-25 18:04 17.99773 -26.42944 30999 ft 553 kts 117°
2026-04-25 18:05 17.96329 -26.35776 30991 ft 546 kts 117°
2026-04-25 18:05 17.92905 -26.28657 31003 ft 546 kts 117°
2026-04-25 18:06 17.89479 -26.21542 30986 ft 547 kts 117°
2026-04-25 18:06 17.86047 -26.14422 30995 ft 546 kts 117°
2026-04-25 18:07 17.82621 -26.07323 30998 ft 546 kts 117°
2026-04-25 18:07 17.79179 -26.00228 30993 ft 545 kts 118°
2026-04-25 18:08 17.75595 -25.93277 30999 ft 545 kts 120°
2026-04-25 18:08 17.71940 -25.86364 30974 ft 532 kts 120°
2026-04-25 18:09 17.68417 -25.79666 30988 ft 521 kts 120°
2026-04-25 18:09 17.64940 -25.73013 30983 ft 521 kts 119°
2026-04-25 18:10 17.61465 -25.66354 30992 ft 520 kts 119°
2026-04-25 18:10 17.57998 -25.59717 30995 ft 520 kts 119°
2026-04-25 18:11 17.55086 -25.54152 30996 ft 520 kts 119°
2026-04-25 18:11 17.51631 -25.47555 30995 ft 520 kts 119°
2026-04-25 18:12 17.48147 -25.40910 30982 ft 520 kts 120°
2026-04-25 18:12 17.44660 -25.34264 30994 ft 520 kts 120°
2026-04-25 18:13 17.41173 -25.27627 30991 ft 521 kts 120°
2026-04-25 18:13 17.37680 -25.20986 30985 ft 520 kts 119°
2026-04-25 18:14 17.32451 -25.11053 30984 ft 519 kts 119°
2026-04-25 18:14 17.28963 -25.04438 30982 ft 519 kts 120°
2026-04-25 18:15 17.25864 -24.97649 30985 ft 518 kts 107°
2026-04-25 18:15 17.24646 -24.90265 30986 ft 515 kts 89°
2026-04-25 18:16 17.25519 -24.82913 30991 ft 508 kts 71°
2026-04-25 18:17 17.28810 -24.72424 30986 ft 506 kts 66°
2026-04-25 18:17 17.29784 -24.68895 30972 ft 508 kts 79°
2026-04-25 18:17 17.29753 -24.65188 30976 ft 515 kts 99°
2026-04-25 18:17 17.28599 -24.61648 30989 ft 517 kts 119°
2026-04-25 18:18 17.26643 -24.58523 30984 ft 512 kts 126°
2026-04-25 18:18 17.22767 -24.52208 30985 ft 520 kts 122°
2026-04-25 18:19 17.19084 -24.45661 30971 ft 524 kts 121°
2026-04-25 18:19 17.15393 -24.39082 30977 ft 524 kts 121°
2026-04-25 18:20 17.11700 -24.32595 30968 ft 521 kts 122°
2026-04-25 18:20 17.07980 -24.26114 30970 ft 519 kts 122°
2026-04-25 18:21 17.04274 -24.19670 30967 ft 516 kts 122°
2026-04-25 18:21 17.00579 -24.13246 30965 ft 515 kts 122°
2026-04-25 18:22 16.96884 -24.06824 30978 ft 515 kts 122°
2026-04-25 18:22 16.93187 -24.00402 30971 ft 517 kts 122°
2026-04-25 18:23 16.89475 -23.93964 30973 ft 518 kts 121°
2026-04-25 18:23 16.85758 -23.87521 30964 ft 518 kts 121°
2026-04-25 18:24 16.82036 -23.81075 30962 ft 519 kts 122°
2026-04-25 18:24 16.78307 -23.74624 30965 ft 519 kts 122°
2026-04-25 18:25 16.74579 -23.68180 30962 ft 519 kts 122°
2026-04-25 18:25 16.70850 -23.61740 30956 ft 518 kts 122°
2026-04-25 18:26 16.67124 -23.55311 30953 ft 518 kts 122°
2026-04-25 18:26 16.63400 -23.48894 30954 ft 517 kts 122°
2026-04-25 18:27 16.59673 -23.42475 30952 ft 517 kts 122°
2026-04-25 18:27 16.55946 -23.36062 30952 ft 517 kts 122°
2026-04-25 18:28 16.52221 -23.29659 30944 ft 517 kts 122°
2026-04-25 18:28 16.48490 -23.23252 30945 ft 517 kts 122°
2026-04-25 18:29 16.42888 -23.13641 30942 ft 517 kts 122°
2026-04-25 18:30 16.35413 -23.00839 30945 ft 517 kts 122°
2026-04-25 18:30 16.31701 -22.94490 30945 ft 516 kts 122°
2026-04-25 18:31 16.27942 -22.88067 30943 ft 516 kts 122°
2026-04-25 18:31 16.24209 -22.81692 30942 ft 516 kts 122°
2026-04-25 18:32 16.20498 -22.75362 30947 ft 516 kts 122°
2026-04-25 18:32 16.16761 -22.68993 30939 ft 516 kts 122°
2026-04-25 18:33 16.13021 -22.62626 30932 ft 516 kts 122°
2026-04-25 18:33 16.09284 -22.56268 30941 ft 515 kts 122°
2026-04-25 18:34 16.05550 -22.49921 30943 ft 514 kts 122°
2026-04-25 18:34 16.01795 -22.43543 30944 ft 514 kts 122°
2026-04-25 18:35 15.98084 -22.37246 30941 ft 514 kts 122°
2026-04-25 18:35 15.94351 -22.30916 30939 ft 514 kts 122°
2026-04-25 18:36 15.90614 -22.24586 30940 ft 514 kts 122°
2026-04-25 18:36 15.86873 -22.18255 30941 ft 514 kts 122°
2026-04-25 18:37 15.83130 -22.11926 30931 ft 514 kts 122°
2026-04-25 18:37 15.79390 -22.05607 30932 ft 513 kts 122°
2026-04-25 18:38 15.75660 -21.99309 30936 ft 512 kts 122°
2026-04-25 18:38 15.71925 -21.93011 30934 ft 512 kts 122°
2026-04-25 18:39 15.68190 -21.86716 30936 ft 512 kts 122°
2026-04-25 18:39 15.64458 -21.80433 30937 ft 512 kts 122°
2026-04-25 18:40 15.60723 -21.74148 30929 ft 512 kts 122°
2026-04-25 18:40 15.56983 -21.67861 30928 ft 512 kts 121°
2026-04-25 18:41 15.53241 -21.61577 30928 ft 512 kts 121°
2026-04-25 18:41 15.49526 -21.55342 30927 ft 511 kts 121°
2026-04-25 18:42 15.47029 -21.51154 30925 ft 511 kts 122°
2026-04-25 18:42 15.42053 -21.42817 30925 ft 511 kts 121°
2026-04-25 18:43 15.38315 -21.36560 30925 ft 510 kts 121°
2026-04-25 18:43 15.34578 -21.30309 30923 ft 510 kts 121°
2026-04-25 18:44 15.30840 -21.24062 30923 ft 510 kts 122°
2026-04-25 18:44 15.27101 -21.17819 30921 ft 510 kts 121°
2026-04-25 18:45 15.23366 -21.11586 30923 ft 509 kts 121°
2026-04-25 18:45 15.19633 -21.05364 30919 ft 508 kts 121°
2026-04-25 18:46 15.15901 -20.99145 30920 ft 508 kts 121°
2026-04-25 18:46 15.12169 -20.92935 30923 ft 508 kts 121°
2026-04-25 18:47 15.08443 -20.86737 30919 ft 508 kts 121°
2026-04-25 18:47 15.04710 -20.80533 30919 ft 508 kts 121°
2026-04-25 18:48 15.00971 -20.74326 30918 ft 508 kts 121°
2026-04-25 18:48 14.97235 -20.68127 30915 ft 507 kts 121°
2026-04-25 18:49 14.93510 -20.61950 30911 ft 506 kts 121°
2026-04-25 18:49 14.89781 -20.55773 30911 ft 505 kts 121°
2026-04-25 18:50 14.86062 -20.49617 30910 ft 505 kts 121°
2026-04-25 18:50 14.82341 -20.43463 30906 ft 505 kts 121°
2026-04-25 18:51 14.79852 -20.39349 30905 ft 504 kts 121°
2026-04-25 18:51 14.74901 -20.31170 30904 ft 504 kts 121°
2026-04-25 18:52 14.71184 -20.25034 30897 ft 504 kts 121°
2026-04-25 18:52 14.67960 -20.18630 30897 ft 502 kts 110°
2026-04-25 18:53 14.65741 -20.11817 30917 ft 500 kts 106°
2026-04-25 18:53 14.63615 -20.04991 30896 ft 500 kts 106°
2026-04-25 18:54 14.60368 -19.94769 30893 ft 499 kts 107°
2026-04-25 18:55 14.58554 -19.89120 30909 ft 499 kts 107°
2026-04-25 18:55 14.55996 -19.81169 30907 ft 499 kts 107°
2026-04-25 18:56 14.54174 -19.75510 30906 ft 499 kts 107°
2026-04-25 18:56 14.51984 -19.68709 30901 ft 499 kts 107°
2026-04-25 18:57 14.49790 -19.61903 30901 ft 499 kts 107°
2026-04-25 18:57 14.47598 -19.55109 30893 ft 499 kts 107°
2026-04-25 18:58 14.45399 -19.48305 30891 ft 499 kts 107°
2026-04-25 18:58 14.42107 -19.38127 30896 ft 498 kts 107°
2026-04-25 18:59 14.37718 -19.24589 30896 ft 497 kts 107°
2026-04-25 19:00 14.34427 -19.14453 30895 ft 497 kts 107°
2026-04-25 19:01 14.31150 -19.04376 30891 ft 497 kts 107°
2026-04-25 19:01 14.28947 -18.97613 30883 ft 497 kts 107°
2026-04-25 19:02 14.25640 -18.87472 30881 ft 498 kts 107°
2026-04-25 19:03 14.22686 -18.78429 30881 ft 498 kts 107°
2026-04-25 19:03 14.20115 -18.70567 30881 ft 498 kts 107°
2026-04-25 19:04 14.16795 -18.60444 30868 ft 495 kts 110°
2026-04-25 19:05 14.13377 -18.54201 30141 ft 519 kts 128°
2026-04-25 19:05 14.08130 -18.49012 29013 ft 521 kts 145°
2026-04-25 19:05 14.05104 -18.47029 28536 ft 509 kts 150°
2026-04-25 19:06 14.02051 -18.45266 28123 ft 497 kts 152°
2026-04-25 19:06 13.96098 -18.42001 27390 ft 476 kts 153°
2026-04-25 19:06 13.93336 -18.40176 26836 ft 471 kts 136°
2026-04-25 19:07 13.90305 -18.34854 26217 ft 407 kts 102°
2026-04-25 19:07 13.89942 -18.32041 25556 ft 390 kts 88°
2026-04-25 19:08 13.90612 -18.26545 24246 ft 389 kts 75°
2026-04-25 19:08 13.91229 -18.23856 23992 ft 383 kts 73°
2026-04-25 19:09 13.93260 -18.15549 21178 ft 420 kts 75°
2026-04-25 19:09 13.93722 -18.13604 20699 ft 423 kts 75°
2026-04-25 19:09 13.95396 -18.06733 19259 ft 423 kts 71°
2026-04-25 19:10 13.96486 -18.03926 18683 ft 422 kts 64°
2026-04-25 19:10 13.97695 -18.01177 18135 ft 421 kts 64°
2026-04-25 19:10 13.98874 -17.98477 17580 ft 417 kts 65°
2026-04-25 19:10 14.00063 -17.95734 17097 ft 412 kts 65°
2026-04-25 19:11 14.01205 -17.93080 16588 ft 408 kts 65°
2026-04-25 19:11 14.02347 -17.90416 16058 ft 405 kts 65°
2026-04-25 19:11 14.03480 -17.87764 15505 ft 403 kts 66°
2026-04-25 19:11 14.04598 -17.85143 15048 ft 398 kts 66°
2026-04-25 19:12 14.05708 -17.82537 14491 ft 396 kts 66°
2026-04-25 19:12 14.06809 -17.79952 14087 ft 390 kts 66°
2026-04-25 19:12 14.07896 -17.77398 13512 ft 389 kts 66°
2026-04-25 19:12 14.08978 -17.74856 13041 ft 385 kts 66°
2026-04-25 19:13 14.10047 -17.72343 12454 ft 382 kts 67°
2026-04-25 19:13 14.11105 -17.69856 12087 ft 375 kts 67°
2026-04-25 19:13 14.12142 -17.67417 11633 ft 370 kts 67°
2026-04-25 19:13 14.13172 -17.64992 11127 ft 367 kts 68°
2026-04-25 19:14 14.14189 -17.62599 10661 ft 362 kts 68°
2026-04-25 19:14 14.14870 -17.60997 10332 ft 361 kts 68°
2026-04-25 19:14 14.16188 -17.57894 9753 ft 354 kts 68°
2026-04-25 19:14 14.17172 -17.55572 9139 ft 354 kts 67°
2026-04-25 19:15 14.18155 -17.53251 8584 ft 352 kts 66°
2026-04-25 19:15 14.19127 -17.50958 8127 ft 347 kts 66°
2026-04-25 19:15 14.20076 -17.48718 7929 ft 328 kts 66°
2026-04-25 19:15 14.20946 -17.46665 7670 ft 298 kts 65°
2026-04-25 19:16 14.21743 -17.44781 7231 ft 279 kts 65°
2026-04-25 19:16 14.22499 -17.42996 6806 ft 267 kts 64°
2026-04-25 19:16 14.23238 -17.41251 6251 ft 263 kts 64°
2026-04-25 19:16 14.23950 -17.39567 6062 ft 255 kts 63°
2026-04-25 19:17 14.24688 -17.37833 5923 ft 268 kts 64°
2026-04-25 19:17 14.25435 -17.36069 5848 ft 266 kts 63°
2026-04-25 19:17 14.26168 -17.34336 5844 ft 263 kts 63°
2026-04-25 19:17 14.26900 -17.32606 5810 ft 263 kts 64°
2026-04-25 19:18 14.27626 -17.30890 5595 ft 262 kts 63°
2026-04-25 19:18 14.28360 -17.29156 5257 ft 259 kts 63°
2026-04-25 19:18 14.29074 -17.27469 4948 ft 255 kts 63°
2026-04-25 19:18 14.29768 -17.25827 4653 ft 251 kts 62°
2026-04-25 19:19 14.30459 -17.24189 4366 ft 247 kts 62°
2026-04-25 19:19 14.31141 -17.22576 3991 ft 246 kts 62°
2026-04-25 19:19 14.31824 -17.20964 3654 ft 244 kts 62°
2026-04-25 19:19 14.32280 -17.19883 3398 ft 244 kts 63°
2026-04-25 19:20 14.33149 -17.17820 3344 ft 234 kts 63°
2026-04-25 19:20 14.33806 -17.16268 3387 ft 239 kts 63°
2026-04-25 19:20 14.34481 -17.14673 3399 ft 244 kts 63°
2026-04-25 19:20 14.35149 -17.13088 3385 ft 240 kts 64°
2026-04-25 19:21 14.35811 -17.11519 3390 ft 237 kts 64°
2026-04-25 19:21 14.37189 -17.08500 3369 ft 226 kts 47°
2026-04-25 19:21 14.38407 -17.07518 3383 ft 224 kts 26°
2026-04-25 19:22 14.39874 -17.06990 3381 ft 222 kts
2026-04-25 19:22 14.41412 -17.06933 3394 ft 222 kts 359°
2026-04-25 19:22 14.44211 -17.07012 3348 ft 174 kts 359°
2026-04-25 19:23 14.45415 -17.07039 3374 ft 187 kts 359°
2026-04-25 19:23 14.48326 -17.07089 3399 ft 217 kts 359°
2026-04-25 19:23 14.49864 -17.07111 3276 ft 226 kts 359°
2026-04-25 19:24 14.51386 -17.07131 3087 ft 203 kts
2026-04-25 19:24 14.52686 -17.07148 2861 ft 175 kts
2026-04-25 19:24 14.55056 -17.07170 2378 ft 175 kts
2026-04-25 19:25 14.57332 -17.07194 2070 ft 150 kts
2026-04-25 19:25 14.58373 -17.07200 2007 ft 150 kts
2026-04-25 19:25 14.59435 -17.07210 1689 ft 154 kts
2026-04-25 19:26 14.60496 -17.07209 1347 ft 148 kts
2026-04-25 19:26 14.61456 -17.07210 1253 ft 149 kts
2026-04-25 19:26 14.62515 -17.07214 921 ft 150 kts 358°
2026-04-25 19:26 14.63515 -17.07251 687 ft 142 kts 359°
2026-04-25 19:27 14.64476 -17.07253 464 ft 135 kts 359°
2026-04-25 19:27 14.65117 -17.07256 378 ft 140 kts 358°
2026-04-25 19:27 14.66380 -17.07276 296 ft 123 kts 359°
2026-04-25 19:27 14.66982 -17.07278 304 ft 32 kts
2026-04-25 19:28 14.67071 -17.07196 305 ft 12 kts 81°
2026-04-25 19:28 14.67072 -17.07178 304 ft 0 kts 88°
2026-04-25 19:29 14.67073 -17.07172 304 ft 3 kts 87°
2026-04-25 19:29 14.67041 -17.07108 304 ft 15 kts 152°
2026-04-25 19:29 14.66931 -17.07090 302 ft 16 kts 179°
2026-04-25 19:30 14.66817 -17.07090 303 ft 16 kts 180°
2026-04-25 19:30 14.66703 -17.07089 300 ft 17 kts 179°
2026-04-25 19:30 14.66581 -17.07087 298 ft 19 kts 179°
2026-04-25 19:30 14.66453 -17.07086 297 ft 10 kts 179°
2026-04-25 19:31 14.66425 -17.07085 296 ft 3 kts 179°
2026-04-25 19:31 14.66413 -17.07085 296 ft 5 kts 179°
2026-04-25 19:31 14.66331 -17.07084 300 ft 17 kts 179°
2026-04-25 19:31 14.66211 -17.07082 298 ft 18 kts 179°
2026-04-25 19:32 14.66076 -17.07081 297 ft 21 kts 179°
2026-04-25 19:32 14.65947 -17.07080 291 ft 15 kts 179°
2026-04-25 19:32 14.65845 -17.07078 294 ft 15 kts 179°
2026-04-25 19:32 14.65812 -17.07078 292 ft 15 kts 179°
2026-04-25 19:33 14.65640 -17.07076 286 ft 17 kts 179°
2026-04-25 19:33 14.65547 -17.07098 283 ft 13 kts 228°
2026-04-25 19:33 14.65534 -17.07129 283 ft 0 kts 257°
2026-04-25 19:34 14.65534 -17.07130 283 ft 1 kts 258°
2026-04-25 19:34 14.65531 -17.07148 283 ft 6 kts 262°
2026-04-25 19:34 14.65526 -17.07253 283 ft 21 kts 269°
2026-04-25 19:34 14.65524 -17.07369 286 ft 15 kts 269°
2026-04-25 19:35 14.65524 -17.07477 286 ft 15 kts 270°
2026-04-25 19:35 14.65525 -17.07592 285 ft 16 kts 270°
2026-04-25 19:35 14.65524 -17.07695 285 ft 7 kts 269°
2026-04-25 19:35 14.65524 -17.07713 285 ft 0 kts 268°